| time (UTC) | temp F | wind direction | speed MPH | gust MPH | rain 1hr in | rain 24hr in | rain mn in | humidity % | barometer mb |
| 20260507010056 | 67 | 325 | 2.0 | 6.0 | 0.00 | 0.00 | 0.00 | 63 | 1015.7 |
| 20260507005554 | 68 | 330 | 4.0 | 6.0 | 0.00 | 0.00 | 0.00 | 61 | 1015.7 |
| 20260507005054 | 68 | 326 | 2.0 | 4.0 | 0.00 | 0.00 | 0.00 | 61 | 1015.7 |
| 20260507004554 | 68 | 328 | 4.0 | 8.0 | 0.00 | 0.00 | 0.00 | 61 | 1015.7 |
| 20260507004054 | 68 | 333 | 3.0 | 5.0 | 0.00 | 0.00 | 0.00 | 62 | 1015.7 |
| 20260507003554 | 68 | 324 | 3.0 | 6.0 | 0.00 | 0.00 | 0.00 | 62 | 1015.6 |
| 20260507003054 | 68 | 316 | 1.0 | 4.0 | 0.00 | 0.00 | 0.00 | 62 | 1015.6 |
| 20260507002555 | 69 | 330 | 3.0 | 6.0 | 0.00 | 0.00 | 0.00 | 62 | 1015.6 |
| 20260507002054 | 69 | 326 | 4.0 | 8.0 | 0.00 | 0.00 | 0.00 | 61 | 1015.5 |
| 20260507001554 | 69 | 322 | 2.0 | 3.0 | 0.00 | 0.00 | 0.00 | 62 | 1015.5 |
| 20260507001054 | 70 | 325 | 3.0 | 5.0 | 0.00 | 0.00 | 0.00 | 61 | 1015.5 |
| 20260507000554 | 70 | 308 | 2.0 | 3.0 | 0.00 | 0.00 | 0.00 | 61 | 1015.4 |
| 20260507000054 | 70 | 305 | 2.0 | 4.0 | 0.00 | 0.00 | 0.00 | 60 | 1015.5 |
| 20260506235554 | 70 | 308 | 2.0 | 4.0 | 0.00 | 0.00 | 0.00 | 60 | 1015.5 |
| 20260506235055 | 70 | 313 | 2.0 | 5.0 | 0.00 | 0.00 | 0.00 | 60 | 1015.5 |
| 20260506234555 | 69 | 322 | 2.0 | 5.0 | 0.00 | 0.00 | 0.00 | 61 | 1015.5 |
| 20260506234054 | 70 | 307 | 4.0 | 6.0 | 0.00 | 0.00 | 0.00 | 59 | 1015.5 |
| 20260506233554 | 70 | 302 | 1.0 | 3.0 | 0.00 | 0.00 | 0.00 | 60 | 1015.5 |
| 20260506233054 | 70 | 330 | 4.0 | 5.0 | 0.00 | 0.00 | 0.00 | 61 | 1015.5 |
| 20260506232554 | 70 | 326 | 3.0 | 6.0 | 0.00 | 0.00 | 0.00 | 61 | 1015.5 |
| 20260506232055 | 70 | 320 | 4.0 | 7.0 | 0.00 | 0.00 | 0.00 | 62 | 1015.5 |
| 20260506231554 | 71 | 320 | 2.0 | 3.0 | 0.00 | 0.00 | 0.00 | 61 | 1015.6 |
| 20260506231054 | 71 | 307 | 2.0 | 5.0 | 0.00 | 0.00 | 0.00 | 60 | 1015.6 |
| 20260506230554 | 71 | 287 | 2.0 | 3.0 | 0.00 | 0.00 | 0.00 | 60 | 1015.6 |
| 20260506230054 | 71 | 274 | 1.0 | 3.0 | 0.00 | 0.00 | 0.00 | 60 | 1015.6 |
| 20260506225554 | 71 | 309 | 2.0 | 4.0 | 0.00 | 0.00 | 0.00 | 60 | 1015.6 |
| 20260506225055 | 71 | 307 | 2.0 | 4.0 | 0.00 | 0.00 | 0.00 | 60 | 1015.7 |
| 20260506224554 | 71 | 296 | 3.0 | 6.0 | 0.00 | 0.00 | 0.00 | 61 | 1015.7 |
| 20260506224055 | 71 | 319 | 3.0 | 5.0 | 0.00 | 0.00 | 0.00 | 61 | 1015.7 |
| 20260506223555 | 71 | 309 | 2.0 | 3.0 | 0.00 | 0.00 | 0.00 | 60 | 1015.7 |
| 20260506223054 | 71 | 316 | 2.0 | 4.0 | 0.00 | 0.00 | 0.00 | 60 | 1015.8 |
| 20260506222554 | 72 | 302 | 2.0 | 3.0 | 0.00 | 0.00 | 0.00 | 59 | 1015.8 |
| 20260506222054 | 72 | 216 | 1.0 | 3.0 | 0.00 | 0.00 | 0.00 | 59 | 1015.8 |
| 20260506221554 | 72 | 300 | 2.0 | 4.0 | 0.00 | 0.00 | 0.00 | 58 | 1015.9 |
| 20260506221054 | 72 | 311 | 2.0 | 3.0 | 0.00 | 0.00 | 0.00 | 59 | 1015.9 |
| 20260506220555 | 72 | 317 | 2.0 | 4.0 | 0.00 | 0.00 | 0.00 | 57 | 1016.0 |
| 20260506220054 | 72 | 318 | 1.0 | 2.0 | 0.00 | 0.00 | 0.00 | 58 | 1016.0 |
| 20260506215554 | 72 | 302 | 1.0 | 2.0 | 0.00 | 0.00 | 0.00 | 58 | 1016.0 |
| 20260506215054 | 73 | 333 | 2.0 | 6.0 | 0.00 | 0.00 | 0.00 | 57 | 1016.0 |
| 20260506214554 | 73 | 303 | 2.0 | 7.0 | 0.00 | 0.00 | 0.00 | 57 | 1016.0 |
| 20260506214054 | 73 | 302 | 2.0 | 4.0 | 0.00 | 0.00 | 0.00 | 57 | 1016.1 |
| 20260506213554 | 72 | 270 | 2.0 | 5.0 | 0.00 | 0.00 | 0.00 | 57 | 1016.1 |
| 20260506213057 | 72 | 316 | 2.0 | 4.0 | 0.00 | 0.00 | 0.00 | 57 | 1016.2 |
| 20260506212554 | 72 | 305 | 2.0 | 4.0 | 0.00 | 0.00 | 0.00 | 59 | 1016.2 |
| 20260506212054 | 72 | 310 | 2.0 | 3.0 | 0.00 | 0.00 | 0.00 | 58 | 1016.2 |
| 20260506211555 | 73 | 328 | 3.0 | 5.0 | 0.00 | 0.00 | 0.00 | 58 | 1016.2 |
| 20260506211055 | 73 | 317 | 4.0 | 6.0 | 0.00 | 0.00 | 0.00 | 57 | 1016.2 |
| 20260506210555 | 73 | 299 | 1.0 | 2.0 | 0.00 | 0.00 | 0.00 | 57 | 1016.3 |
| 20260506210055 | 73 | 316 | 1.0 | 3.0 | 0.00 | 0.00 | 0.00 | 57 | 1016.3 |
| 20260506205554 | 73 | 301 | 1.0 | 3.0 | 0.00 | 0.00 | 0.00 | 58 | 1016.3 |
| 20260506205054 | 72 | 190 | 1.0 | 3.0 | 0.00 | 0.00 | 0.00 | 58 | 1016.4 |
| 20260506204554 | 72 | 328 | 1.0 | 3.0 | 0.00 | 0.00 | 0.00 | 58 | 1016.3 |
| 20260506204054 | 72 | 299 | 1.0 | 3.0 | 0.00 | 0.00 | 0.00 | 57 | 1016.4 |
| 20260506203554 | 72 | 315 | 2.0 | 5.0 | 0.00 | 0.00 | 0.00 | 58 | 1016.3 |
| 20260506203054 | 73 | 337 | 4.0 | 8.0 | 0.00 | 0.00 | 0.00 | 58 | 1016.3 |
| 20260506202555 | 73 | 313 | 1.0 | 3.0 | 0.00 | 0.00 | 0.00 | 56 | 1016.4 |
| 20260506202055 | 74 | 314 | 1.0 | 3.0 | 0.00 | 0.00 | 0.00 | 56 | 1016.5 |
| 20260506201556 | 74 | 225 | 3.0 | 6.0 | 0.00 | 0.00 | 0.00 | 55 | 1016.4 |
| 20260506201057 | 75 | 300 | 2.0 | 4.0 | 0.00 | 0.00 | 0.00 | 55 | 1016.4 |
| 20260506200555 | 75 | 226 | 1.0 | 3.0 | 0.00 | 0.00 | 0.00 | 55 | 1016.5 |
| 20260506200054 | 75 | 288 | 2.0 | 6.0 | 0.00 | 0.00 | 0.00 | 53 | 1016.5 |
| 20260506195554 | 74 | 128 | 1.0 | 2.0 | 0.00 | 0.00 | 0.00 | 54 | 1016.5 |
| 20260506195054 | 74 | 317 | 1.0 | 3.0 | 0.00 | 0.00 | 0.00 | 55 | 1016.6 |
| 20260506194554 | 74 | 191 | 2.0 | 5.0 | 0.00 | 0.00 | 0.00 | 54 | 1016.6 |
| 20260506194054 | 74 | 327 | 2.0 | 4.0 | 0.00 | 0.00 | 0.00 | 54 | 1016.7 |
| 20260506193554 | 75 | 307 | 2.0 | 3.0 | 0.00 | 0.00 | 0.00 | 53 | 1016.7 |
| 20260506193054 | 74 | 214 | 1.0 | 4.0 | 0.00 | 0.00 | 0.00 | 54 | 1016.8 |
| 20260506192554 | 75 | 304 | 2.0 | 4.0 | 0.00 | 0.00 | 0.00 | 53 | 1016.8 |
| 20260506192054 | 74 | 184 | 1.0 | 3.0 | 0.00 | 0.00 | 0.00 | 54 | 1016.8 |
| 20260506191555 | 74 | 201 | 1.0 | 2.0 | 0.00 | 0.00 | 0.00 | 53 | 1016.9 |
| 20260506191055 | 74 | 308 | 2.0 | 6.0 | 0.00 | 0.00 | 0.00 | 53 | 1016.9 |
| 20260506190125 | 73 | 319 | 2.0 | 3.0 | 0.00 | 0.00 | 0.00 | 53 | 1017.0 |
| 20260506185556 | 73 | 308 | 2.0 | 3.0 | 0.00 | 0.00 | 0.00 | 54 | 1017.1 |
| 20260506185055 | 73 | 350 | 4.0 | 7.0 | 0.00 | 0.00 | 0.00 | 54 | 1017.0 |
| 20260506184555 | 73 | 192 | 3.0 | 6.0 | 0.00 | 0.00 | 0.00 | 55 | 1017.1 |
| 20260506184054 | 72 | 17 | 1.0 | 3.0 | 0.00 | 0.00 | 0.00 | 57 | 1017.2 |
| 20260506183555 | 72 | 332 | 2.0 | 3.0 | 0.00 | 0.00 | 0.00 | 55 | 1017.3 |
| 20260506183054 | 71 | 90 | 1.0 | 3.0 | 0.00 | 0.00 | 0.00 | 55 | 1017.4 |
| 20260506182554 | 71 | 327 | 3.0 | 4.0 | 0.00 | 0.00 | 0.00 | 54 | 1017.4 |
| 20260506182054 | 71 | 347 | 5.0 | 8.0 | 0.00 | 0.00 | 0.00 | 53 | 1017.4 |
| 20260506181555 | 70 | 311 | 1.0 | 3.0 | 0.00 | 0.00 | 0.00 | 55 | 1017.4 |
| 20260506181054 | 70 | 327 | 2.0 | 4.0 | 0.00 | 0.00 | 0.00 | 55 | 1017.5 |
| 20260506180555 | 70 | 345 | 3.0 | 6.0 | 0.00 | 0.00 | 0.00 | 55 | 1017.6 |
| 20260506180054 | 70 | 333 | 2.0 | 6.0 | 0.00 | 0.00 | 0.00 | 56 | 1017.6 |
| 20260506175554 | 70 | 327 | 2.0 | 5.0 | 0.00 | 0.00 | 0.00 | 56 | 1017.7 |
| 20260506175054 | 69 | 7 | 3.0 | 5.0 | 0.00 | 0.00 | 0.00 | 57 | 1017.7 |
| 20260506174554 | 69 | 350 | 3.0 | 6.0 | 0.00 | 0.00 | 0.00 | 57 | 1017.8 |
| 20260506174054 | 69 | 315 | 1.0 | 3.0 | 0.00 | 0.00 | 0.00 | 58 | 1017.8 |
| 20260506173555 | 69 | 318 | 2.0 | 4.0 | 0.00 | 0.00 | 0.00 | 57 | 1017.8 |
| 20260506173055 | 68 | 314 | 2.0 | 4.0 | 0.00 | 0.00 | 0.00 | 57 | 1017.9 |
| 20260506172555 | 68 | 352 | 4.0 | 6.0 | 0.00 | 0.00 | 0.00 | 59 | 1017.9 |
| 20260506172055 | 69 | 326 | 5.0 | 9.0 | 0.00 | 0.00 | 0.00 | 58 | 1018.0 |
| 20260506171555 | 69 | 353 | 1.0 | 2.0 | 0.00 | 0.00 | 0.00 | 57 | 1018.1 |
| 20260506171058 | 69 | 309 | 2.0 | 4.0 | 0.00 | 0.00 | 0.00 | 57 | 1018.0 |
| 20260506170555 | 68 | 353 | 2.0 | 4.0 | 0.00 | 0.00 | 0.00 | 59 | 1018.0 |
| 20260506170054 | 67 | 143 | 1.0 | 2.0 | 0.00 | 0.00 | 0.00 | 60 | 1018.0 |
| 20260506165556 | 67 | 334 | 2.0 | 4.0 | 0.00 | 0.00 | 0.00 | 62 | 1018.0 |
| 20260506165054 | 67 | 327 | 2.0 | 5.0 | 0.00 | 0.00 | 0.00 | 61 | 1018.0 |
| 20260506164557 | 66 | 329 | 1.0 | 3.0 | 0.00 | 0.00 | 0.00 | 63 | 1017.9 |
| 20260506164054 | 66 | 4 | 4.0 | 7.0 | 0.00 | 0.00 | 0.00 | 62 | 1017.9 |
| 20260506163555 | 66 | 353 | 4.0 | 5.0 | 0.00 | 0.00 | 0.00 | 63 | 1018.0 |
| 20260506163054 | 66 | 352 | 2.0 | 4.0 | 0.00 | 0.00 | 0.00 | 62 | 1018.1 |
| 20260506162555 | 66 | 0 | 4.0 | 5.0 | 0.00 | 0.00 | 0.00 | 64 | 1018.1 |
| 20260506162055 | 65 | 345 | 3.0 | 4.0 | 0.00 | 0.00 | 0.00 | 65 | 1018.1 |
| 20260506161554 | 65 | 303 | 0.0 | 1.0 | 0.00 | 0.00 | 0.00 | 66 | 1018.1 |
| 20260506161055 | 66 | 91 | 3.0 | 6.0 | 0.00 | 0.00 | 0.00 | 64 | 1018.1 |
| 20260506160555 | 65 | 92 | 1.0 | 3.0 | 0.00 | 0.00 | 0.00 | 65 | 1018.1 |
| 20260506160055 | 64 | 160 | 1.0 | 3.0 | 0.00 | 0.00 | 0.00 | 67 | 1018.1 |
| 20260506155554 | 64 | 97 | 3.0 | 4.0 | 0.00 | 0.00 | 0.00 | 66 | 1018.1 |
| 20260506155055 | 64 | 117 | 2.0 | 5.0 | 0.00 | 0.00 | 0.00 | 67 | 1018.1 |
| 20260506154555 | 63 | 61 | 2.0 | 4.0 | 0.00 | 0.00 | 0.00 | 68 | 1018.0 |
| 20260506154054 | 63 | 44 | 3.0 | 6.0 | 0.00 | 0.00 | 0.00 | 69 | 1018.1 |
| 20260506153554 | 63 | 359 | 3.0 | 5.0 | 0.00 | 0.00 | 0.00 | 68 | 1018.1 |
| 20260506153054 | 63 | 37 | 3.0 | 4.0 | 0.00 | 0.00 | 0.00 | 68 | 1018.1 |
| 20260506152555 | 62 | 48 | 3.0 | 4.0 | 0.00 | 0.00 | 0.00 | 69 | 1018.1 |
| 20260506152055 | 62 | 36 | 2.0 | 4.0 | 0.00 | 0.00 | 0.00 | 70 | 1018.2 |
| 20260506151126 | 61 | 35 | 2.0 | 4.0 | 0.00 | 0.00 | 0.00 | 72 | 1018.2 |
| 20260506150555 | 61 | 2 | 3.0 | 4.0 | 0.00 | 0.00 | 0.00 | 72 | 1018.2 |
| 20260506150054 | 61 | 29 | 4.0 | 5.0 | 0.00 | 0.00 | 0.00 | 72 | 1018.2 |
| 20260506145555 | 60 | 12 | 3.0 | 4.0 | 0.00 | 0.00 | 0.00 | 73 | 1018.2 |
| 20260506145054 | 60 | 13 | 3.0 | 4.0 | 0.00 | 0.00 | 0.00 | 74 | 1018.1 |
| 20260506144554 | 59 | 41 | 2.0 | 3.0 | 0.00 | 0.00 | 0.00 | 75 | 1018.1 |
| 20260506144054 | 59 | 5 | 2.0 | 4.0 | 0.00 | 0.00 | 0.00 | 77 | 1018.0 |
| 20260506143556 | 59 | 30 | 2.0 | 3.0 | 0.00 | 0.00 | 0.00 | 76 | 1018.0 |
| 20260506143055 | 58 | 41 | 2.0 | 4.0 | 0.00 | 0.00 | 0.00 | 77 | 1018.0 |
| 20260506142554 | 58 | 25 | 2.0 | 3.0 | 0.00 | 0.00 | 0.00 | 78 | 1018.0 |
| 20260506142055 | 57 | 13 | 2.0 | 3.0 | 0.00 | 0.00 | 0.00 | 78 | 1018.0 |
| 20260506141554 | 57 | 37 | 3.0 | 5.0 | 0.00 | 0.00 | 0.00 | 79 | 1017.9 |
| 20260506141055 | 56 | 30 | 3.0 | 4.0 | 0.00 | 0.00 | 0.00 | 79 | 1017.9 |
| 20260506140555 | 56 | 21 | 3.0 | 4.0 | 0.00 | 0.00 | 0.00 | 80 | 1017.9 |
| 20260506140055 | 55 | 36 | 3.0 | 4.0 | 0.00 | 0.00 | 0.00 | 81 | 1017.9 |
| 20260506135554 | 54 | 31 | 2.0 | 3.0 | 0.00 | 0.00 | 0.00 | 84 | 1017.9 |
| 20260506135054 | 54 | 22 | 2.0 | 3.0 | 0.00 | 0.00 | 0.00 | 85 | 1017.8 |
| 20260506134554 | 54 | 24 | 2.0 | 3.0 | 0.00 | 0.00 | 0.00 | 85 | 1017.7 |
| 20260506134055 | 54 | 29 | 2.0 | 2.0 | 0.00 | 0.00 | 0.00 | 85 | 1017.7 |
| 20260506133555 | 54 | 24 | 2.0 | 3.0 | 0.00 | 0.00 | 0.00 | 84 | 1017.6 |
| 20260506133054 | 53 | 69 | 0.0 | 2.0 | 0.00 | 0.00 | 0.00 | 85 | 1017.5 |
| 20260506132554 | 53 | 58 | 2.0 | 4.0 | 0.00 | 0.00 | 0.00 | 87 | 1017.5 |
| 20260506132055 | 53 | 48 | 3.0 | 5.0 | 0.00 | 0.00 | 0.00 | 87 | 1017.5 |
| 20260506131555 | 52 | 28 | 2.0 | 4.0 | 0.00 | 0.00 | 0.00 | 88 | 1017.5 |
| 20260506131054 | 52 | 18 | 2.0 | 3.0 | 0.00 | 0.00 | 0.00 | 88 | 1017.4 |
| 20260506130558 | 52 | 20 | 2.0 | 3.0 | 0.00 | 0.00 | 0.00 | 88 | 1017.4 |
| 20260506130054 | 52 | 24 | 2.0 | 4.0 | 0.00 | 0.00 | 0.00 | 88 | 1017.4 |
| 20260506125554 | 52 | 19 | 2.0 | 4.0 | 0.00 | 0.00 | 0.00 | 88 | 1017.3 |
| 20260506125054 | 52 | 25 | 3.0 | 4.0 | 0.00 | 0.00 | 0.00 | 88 | 1017.2 |
| 20260506124555 | 52 | 24 | 2.0 | 3.0 | 0.00 | 0.00 | 0.00 | 88 | 1017.1 |
| 20260506124054 | 53 | 25 | 2.0 | 4.0 | 0.00 | 0.00 | 0.00 | 88 | 1017.2 |
| 20260506123555 | 53 | 36 | 2.0 | 3.0 | 0.00 | 0.00 | 0.00 | 88 | 1017.1 |
| 20260506123055 | 53 | 29 | 2.0 | 3.0 | 0.00 | 0.00 | 0.00 | 87 | 1017.1 |
| 20260506122554 | 53 | 42 | 3.0 | 4.0 | 0.00 | 0.00 | 0.00 | 87 | 1017.1 |
| 20260506122054 | 53 | 24 | 3.0 | 4.0 | 0.00 | 0.00 | 0.00 | 88 | 1017.1 |
| 20260506121554 | 53 | 0 | 2.0 | 3.0 | 0.00 | 0.00 | 0.00 | 87 | 1017.1 |
| 20260506120605 | 53 | 45 | 2.0 | 3.0 | 0.00 | 0.00 | 0.00 | 87 | 1017.0 |
| 20260506120059 | 53 | 38 | 2.0 | 3.0 | 0.00 | 0.00 | 0.00 | 87 | 1017.0 |
| 20260506115554 | 53 | 359 | 2.0 | 4.0 | 0.00 | 0.00 | 0.00 | 87 | 1017.0 |
| 20260506115054 | 53 | 350 | 2.0 | 3.0 | 0.00 | 0.00 | 0.00 | 87 | 1017.0 |
| 20260506114554 | 53 | 15 | 1.0 | 1.0 | 0.00 | 0.00 | 0.00 | 87 | 1016.9 |
| 20260506114054 | 53 | 0 | 0.0 | 0.0 | 0.00 | 0.00 | 0.00 | 86 | 1016.9 |
| 20260506113554 | 53 | 0 | 0.0 | 0.0 | 0.00 | 0.00 | 0.00 | 86 | 1016.9 |
| 20260506113055 | 53 | 4 | 1.0 | 2.0 | 0.00 | 0.00 | 0.00 | 86 | 1017.0 |
| 20260506112554 | 54 | 44 | 0.0 | 1.0 | 0.00 | 0.00 | 0.00 | 85 | 1016.9 |
| 20260506112054 | 54 | 16 | 0.0 | 1.0 | 0.00 | 0.00 | 0.00 | 85 | 1016.9 |
| 20260506111554 | 54 | 19 | 1.0 | 2.0 | 0.00 | 0.00 | 0.00 | 85 | 1016.9 |
| 20260506111055 | 54 | 4 | 2.0 | 2.0 | 0.00 | 0.00 | 0.00 | 85 | 1016.9 |
| 20260506110554 | 54 | 3 | 0.0 | 1.0 | 0.00 | 0.00 | 0.00 | 84 | 1016.9 |
| 20260506110054 | 55 | 36 | 2.0 | 2.0 | 0.00 | 0.00 | 0.00 | 84 | 1016.9 |
| 20260506105554 | 55 | 30 | 1.0 | 2.0 | 0.00 | 0.00 | 0.00 | 83 | 1016.9 |
| 20260506105055 | 55 | 16 | 2.0 | 3.0 | 0.00 | 0.00 | 0.00 | 82 | 1017.0 |
| 20260506104554 | 55 | 27 | 2.0 | 3.0 | 0.00 | 0.00 | 0.00 | 83 | 1017.0 |
| 20260506104054 | 55 | 40 | 3.0 | 4.0 | 0.00 | 0.00 | 0.00 | 83 | 1017.0 |
| 20260506103554 | 55 | 17 | 2.0 | 4.0 | 0.00 | 0.00 | 0.00 | 82 | 1016.9 |
| 20260506103055 | 55 | 49 | 2.0 | 3.0 | 0.00 | 0.00 | 0.00 | 82 | 1016.9 |
| 20260506102554 | 55 | 42 | 2.0 | 3.0 | 0.00 | 0.00 | 0.00 | 83 | 1016.9 |
| 20260506102054 | 55 | 22 | 2.0 | 2.0 | 0.00 | 0.00 | 0.00 | 82 | 1016.8 |
| 20260506101554 | 55 | 23 | 2.0 | 2.0 | 0.00 | 0.00 | 0.00 | 81 | 1016.8 |
| 20260506101056 | 55 | 39 | 2.0 | 4.0 | 0.00 | 0.00 | 0.00 | 82 | 1017.1 |
| 20260506100554 | 55 | 2 | 1.0 | 2.0 | 0.00 | 0.00 | 0.00 | 83 | 1017.1 |
| 20260506100055 | 55 | 39 | 0.0 | 2.0 | 0.00 | 0.00 | 0.00 | 83 | 1017.1 |
| 20260506095555 | 54 | 48 | 1.0 | 2.0 | 0.00 | 0.00 | 0.00 | 84 | 1017.1 |
| 20260506095055 | 54 | 40 | 0.0 | 1.0 | 0.00 | 0.00 | 0.00 | 84 | 1017.1 |
| 20260506094554 | 54 | 0 | 0.0 | 0.0 | 0.00 | 0.00 | 0.00 | 84 | 1017.1 |
| 20260506094054 | 54 | 0 | 0.0 | 0.0 | 0.00 | 0.00 | 0.00 | 84 | 1017.1 |
| 20260506093555 | 54 | 41 | 0.0 | 2.0 | 0.00 | 0.00 | 0.00 | 84 | 1017.1 |
| 20260506093054 | 53 | 61 | 0.0 | 2.0 | 0.00 | 0.00 | 0.00 | 85 | 1017.1 |
| 20260506092555 | 53 | 91 | 0.0 | 1.0 | 0.00 | 0.00 | 0.00 | 85 | 1017.1 |
| 20260506092055 | 53 | 35 | 1.0 | 2.0 | 0.00 | 0.00 | 0.00 | 85 | 1017.1 |
| 20260506091554 | 53 | 2 | 0.0 | 1.0 | 0.00 | 0.00 | 0.00 | 85 | 1017.0 |
| 20260506091054 | 54 | 44 | 1.0 | 1.0 | 0.00 | 0.00 | 0.00 | 85 | 1017.1 |
| 20260506090554 | 54 | 0 | 0.0 | 0.0 | 0.00 | 0.00 | 0.00 | 84 | 1017.1 |
| 20260506090054 | 54 | 0 | 0.0 | 0.0 | 0.00 | 0.00 | 0.00 | 84 | 1017.2 |
| 20260506085557 | 54 | 0 | 0.0 | 0.0 | 0.00 | 0.00 | 0.00 | 84 | 1017.3 |
| 20260506085055 | 54 | 32 | 1.0 | 1.0 | 0.00 | 0.00 | 0.00 | 83 | 1017.4 |
| 20260506084554 | 54 | 11 | 1.0 | 1.0 | 0.00 | 0.00 | 0.00 | 83 | 1017.4 |
| 20260506084055 | 54 | 356 | 0.0 | 1.0 | 0.00 | 0.00 | 0.00 | 83 | 1017.5 |
| 20260506083554 | 54 | 43 | 1.0 | 2.0 | 0.00 | 0.00 | 0.00 | 83 | 1017.6 |
| 20260506083055 | 54 | 43 | 0.0 | 1.0 | 0.00 | 0.00 | 0.00 | 83 | 1017.7 |
| 20260506082554 | 54 | 40 | 1.0 | 2.0 | 0.00 | 0.00 | 0.00 | 83 | 1017.7 |
| 20260506082055 | 54 | 23 | 1.0 | 2.0 | 0.00 | 0.00 | 0.00 | 83 | 1017.7 |
| 20260506081555 | 54 | 33 | 2.0 | 3.0 | 0.00 | 0.00 | 0.00 | 83 | 1017.7 |
| 20260506081054 | 54 | 30 | 2.0 | 2.0 | 0.00 | 0.00 | 0.00 | 83 | 1017.7 |
| 20260506080554 | 54 | 24 | 1.0 | 2.0 | 0.00 | 0.00 | 0.00 | 83 | 1017.7 |
| 20260506073055 | 54 | 49 | 2.0 | 3.0 | 0.00 | 0.00 | 0.00 | 83 | 1017.9 |
| 20260506072554 | 54 | 15 | 0.0 | 1.0 | 0.00 | 0.00 | 0.00 | 83 | 1017.9 |
| 20260506072054 | 54 | 14 | 0.0 | 1.0 | 0.00 | 0.00 | 0.00 | 83 | 1017.9 |
| 20260506071554 | 55 | 46 | 0.0 | 1.0 | 0.00 | 0.00 | 0.00 | 83 | 1017.9 |
| 20260506071055 | 55 | 10 | 0.0 | 1.0 | 0.00 | 0.00 | 0.00 | 83 | 1017.9 |
| 20260506070554 | 55 | 39 | 0.0 | 1.0 | 0.00 | 0.00 | 0.00 | 82 | 1017.8 |
| 20260506062054 | 56 | 43 | 0.0 | 0.0 | 0.00 | 0.00 | 0.31 | 81 | 1017.5 |
| 20260506061555 | 56 | 0 | 0.0 | 0.0 | 0.00 | 0.00 | 0.31 | 80 | 1017.5 |
| 20260506061054 | 56 | 0 | 0.0 | 0.0 | 0.00 | 0.00 | 0.31 | 79 | 1017.5 |
| 20260506060555 | 57 | 47 | 0.0 | 1.0 | 0.00 | 0.00 | 0.31 | 78 | 1017.6 |
| 20260506051054 | 57 | 3 | 1.0 | 2.0 | 0.00 | 0.00 | 0.31 | 77 | 1017.6 |
| 20260506050554 | 57 | 0 | 0.0 | 0.0 | 0.00 | 0.00 | 0.31 | 77 | 1017.6 |
| 20260506045054 | 57 | 113 | 0.0 | 1.0 | 0.00 | 0.00 | 0.31 | 77 | 1017.4 |
| 20260506044554 | 57 | 0 | 0.0 | 0.0 | 0.00 | 0.00 | 0.31 | 78 | 1017.3 |
| 20260506044054 | 57 | 103 | 0.0 | 1.0 | 0.00 | 0.00 | 0.31 | 77 | 1017.2 |
| 20260506043555 | 56 | 93 | 0.0 | 1.0 | 0.00 | 0.00 | 0.31 | 78 | 1017.1 |
| 20260506043054 | 57 | 0 | 0.0 | 0.0 | 0.00 | 0.00 | 0.31 | 78 | 1017.1 |
| 20260506042554 | 57 | 0 | 0.0 | 0.0 | 0.00 | 0.00 | 0.31 | 77 | 1017.1 |
| 20260506042055 | 57 | 0 | 0.0 | 0.0 | 0.00 | 0.00 | 0.31 | 77 | 1017.0 |
| 20260506041554 | 57 | 41 | 0.0 | 2.0 | 0.00 | 0.00 | 0.31 | 77 | 1017.0 |
| 20260506041054 | 57 | 12 | 0.0 | 1.0 | 0.00 | 0.00 | 0.31 | 77 | 1016.9 |
| 20260506040554 | 57 | 13 | 0.0 | 1.0 | 0.00 | 0.00 | 0.31 | 76 | 1016.8 |
| 20260506040054 | 57 | 0 | 0.0 | 0.0 | 0.00 | 0.00 | 0.31 | 76 | 1016.8 |
| 20260506035554 | 57 | 55 | 0.0 | 0.0 | 0.00 | 0.00 | 0.31 | 75 | 1016.6 |
| 20260506035054 | 58 | 0 | 0.0 | 0.0 | 0.00 | 0.00 | 0.31 | 75 | 1016.6 |
| 20260506034554 | 58 | 7 | 0.0 | 1.0 | 0.00 | 0.00 | 0.31 | 74 | 1016.5 |
| 20260506034055 | 58 | 0 | 0.0 | 0.0 | 0.00 | 0.00 | 0.31 | 73 | 1016.5 |
| 20260506033554 | 58 | 0 | 0.0 | 0.0 | 0.00 | 0.00 | 0.31 | 73 | 1016.4 |
| 20260506033054 | 59 | 5 | 0.0 | 1.0 | 0.00 | 0.00 | 0.31 | 72 | 1016.3 |
| 20260506032554 | 59 | 347 | 0.0 | 1.0 | 0.00 | 0.00 | 0.31 | 72 | 1016.2 |
| 20260506032054 | 59 | 345 | 0.0 | 1.0 | 0.00 | 0.00 | 0.31 | 72 | 1016.2 |
| 20260506031554 | 59 | 334 | 0.0 | 1.0 | 0.00 | 0.00 | 0.31 | 72 | 1016.2 |
| 20260506031054 | 59 | 348 | 0.0 | 1.0 | 0.00 | 0.00 | 0.31 | 73 | 1016.1 |
| 20260506030554 | 59 | 358 | 1.0 | 2.0 | 0.00 | 0.00 | 0.31 | 72 | 1016.0 |
| 20260506030054 | 59 | 320 | 1.0 | 2.0 | 0.00 | 0.00 | 0.31 | 72 | 1016.0 |
| 20260506025554 | 59 | 342 | 0.0 | 2.0 | 0.00 | 0.00 | 0.31 | 72 | 1015.9 |
| 20260506025054 | 60 | 346 | 0.0 | 2.0 | 0.00 | 0.00 | 0.31 | 72 | 1015.8 |
| 20260506024554 | 60 | 342 | 1.0 | 3.0 | 0.00 | 0.00 | 0.31 | 71 | 1015.8 |
| 20260506024054 | 60 | 331 | 1.0 | 1.0 | 0.00 | 0.00 | 0.31 | 71 | 1015.7 |
| 20260506023554 | 60 | 354 | 0.0 | 1.0 | 0.00 | 0.00 | 0.31 | 70 | 1015.6 |
| 20260506023054 | 60 | 339 | 1.0 | 2.0 | 0.00 | 0.00 | 0.31 | 70 | 1015.5 |
| 20260506022554 | 61 | 337 | 3.0 | 6.0 | 0.00 | 0.00 | 0.31 | 69 | 1015.5 |
| 20260506022054 | 61 | 352 | 1.0 | 2.0 | 0.00 | 0.00 | 0.31 | 69 | 1015.4 |
| 20260506021554 | 61 | 333 | 1.0 | 2.0 | 0.00 | 0.00 | 0.31 | 68 | 1015.4 |
| 20260506021059 | 61 | 355 | 0.0 | 1.0 | 0.00 | 0.00 | 0.31 | 67 | 1015.3 |
| 20260506020554 | 62 | 333 | 2.0 | 4.0 | 0.00 | 0.00 | 0.31 | 67 | 1015.3 |
| 20260506020055 | 62 | 327 | 1.0 | 2.0 | 0.00 | 0.00 | 0.31 | 66 | 1015.2 |
| 20260506015554 | 62 | 340 | 2.0 | 5.0 | 0.00 | 0.00 | 0.31 | 65 | 1015.2 |
| 20260506015054 | 63 | 332 | 1.0 | 2.0 | 0.00 | 0.00 | 0.31 | 64 | 1015.2 |
| 20260506014554 | 63 | 314 | 1.0 | 3.0 | 0.00 | 0.00 | 0.31 | 64 | 1015.1 |
| 20260506014054 | 63 | 314 | 2.0 | 5.0 | 0.00 | 0.00 | 0.31 | 63 | 1015.1 |
| 20260506013554 | 64 | 325 | 2.0 | 4.0 | 0.00 | 0.00 | 0.31 | 61 | 1015.1 |
| 20260506013055 | 64 | 334 | 1.0 | 2.0 | 0.00 | 0.00 | 0.31 | 61 | 1015.1 |
| 20260506012554 | 64 | 307 | 2.0 | 3.0 | 0.00 | 0.00 | 0.31 | 61 | 1015.0 |
| 20260506012054 | 64 | 335 | 1.0 | 2.0 | 0.00 | 0.00 | 0.31 | 62 | 1015.0 |
| 20260506011554 | 64 | 313 | 1.0 | 2.0 | 0.00 | 0.00 | 0.31 | 62 | 1015.0 |
| 20260506011056 | 64 | 309 | 1.0 | 3.0 | 0.00 | 0.00 | 0.31 | 60 | 1015.0 |
| 20260506010554 | 64 | 346 | 1.0 | 2.0 | 0.00 | 0.00 | 0.31 | 61 | 1015.0 |